Time,TemperatureF,DewpointF,PressureIn,WindDirection,WindDirectionDegrees,WindSpeedMPH,WindSpeedGustMPH,Humidity,HourlyPrecipIn,Conditions,Clouds,dailyrainin,SoftwareType,DateUTC
2013-06-27 07:26:00,73.0,71.2,29.75,WNW,288,0.0,0.0,94,0.00,,,0.00,Wunderground v.1.15,2013-06-27 12:26:00,
2013-06-27 07:27:00,73.1,71.3,29.75,WNW,300,0.0,0.0,94,0.00,,,0.00,Wunderground v.1.15,2013-06-27 12:27:00,
2013-06-27 07:28:00,73.1,71.3,29.75,NW,310,0.0,0.0,94,0.00,,,0.00,Wunderground v.1.15,2013-06-27 12:28:00,
2013-06-27 07:29:00,73.2,71.4,29.75,NW,312,0.0,0.0,94,0.00,,,0.00,Wunderground v.1.15,2013-06-27 12:29:00,
2013-06-27 07:33:00,73.5,71.7,29.75,NW,313,0.0,1.0,94,0.00,,,0.00,Wunderground v.1.15,2013-06-27 12:33:00,
2013-06-27 07:39:00,73.9,71.7,29.75,NNW,340,0.0,2.0,93,0.00,,,0.00,Wunderground v.1.15,2013-06-27 12:39:00,
2013-06-27 07:45:00,74.3,71.8,29.75,WNW,292,1.0,3.0,92,0.00,,,0.00,Wunderground v.1.15,2013-06-27 12:45:00,
2013-06-27 07:51:00,74.8,72.3,29.75,West,279,0.0,1.0,92,0.00,,,0.00,Wunderground v.1.15,2013-06-27 12:51:00,
2013-06-27 07:57:00,75.5,72.7,29.75,WNW,287,0.0,3.0,91,0.00,,,0.00,Wunderground v.1.15,2013-06-27 12:57:00,
2013-06-27 08:02:00,75.9,72.4,29.75,West,262,1.0,4.0,89,0.00,,,0.00,Wunderground v.1.15,2013-06-27 13:02:00,
2013-06-27 08:07:00,76.2,72.7,29.75,West,273,1.0,4.0,89,0.00,,,0.00,Wunderground v.1.15,2013-06-27 13:07:00,
2013-06-27 08:13:00,76.5,73.0,29.75,NW,309,1.0,2.0,89,0.00,,,0.00,Wunderground v.1.15,2013-06-27 13:13:00,
2013-06-27 08:19:00,76.5,72.7,29.75,WSW,240,1.0,2.0,88,0.00,,,0.00,Wunderground v.1.15,2013-06-27 13:19:00,
2013-06-27 08:24:00,76.7,72.9,29.75,NNW,340,0.0,1.0,88,0.00,,,0.00,Wunderground v.1.15,2013-06-27 13:24:00,
2013-06-27 08:30:00,77.1,73.3,29.75,NNW,344,1.0,3.0,88,0.00,,,0.00,Wunderground v.1.15,2013-06-27 13:30:00,
2013-06-27 08:36:00,77.6,73.8,29.75,NNW,339,1.0,3.0,88,0.00,,,0.00,Wunderground v.1.15,2013-06-27 13:36:00,
2013-06-27 08:41:00,78.0,73.5,29.75,WNW,299,1.0,3.0,86,0.00,,,0.00,Wunderground v.1.15,2013-06-27 13:41:00,
2013-06-27 08:47:00,78.4,73.9,29.75,WSW,258,1.0,3.0,86,0.00,,,0.00,Wunderground v.1.15,2013-06-27 13:47:00,
2013-06-27 08:53:00,79.0,74.5,29.75,SW,221,1.0,2.0,86,0.00,,,0.00,Wunderground v.1.15,2013-06-27 13:53:00,
2013-06-27 08:58:00,79.2,74.3,29.75,North,360,2.0,5.0,85,0.00,,,0.00,Wunderground v.1.15,2013-06-27 13:58:00,
2013-06-27 09:04:00,79.3,74.4,29.74,SW,227,2.0,4.0,85,0.00,,,0.00,Wunderground v.1.15,2013-06-27 14:04:00,
2013-06-27 09:09:00,79.6,74.3,29.74,WSW,246,2.0,4.0,84,0.00,,,0.00,Wunderground v.1.15,2013-06-27 14:09:00,
2013-06-27 09:15:00,79.9,74.3,29.74,SW,222,2.0,3.0,83,0.00,,,0.00,Wunderground v.1.15,2013-06-27 14:15:00,
2013-06-27 09:20:00,80.0,74.0,29.75,NE,38,2.0,2.0,82,0.00,,,0.00,Wunderground v.1.15,2013-06-27 14:20:00,
2013-06-27 09:26:00,80.1,74.1,29.75,NNW,327,3.0,4.0,82,0.00,,,0.00,Wunderground v.1.15,2013-06-27 14:26:00,
2013-06-27 09:31:00,80.4,74.8,29.75,SSW,213,2.0,2.0,83,0.00,,,0.00,Wunderground v.1.15,2013-06-27 14:31:00,
2013-06-27 09:37:00,80.5,74.5,29.75,NW,305,2.0,6.0,82,0.00,,,0.00,Wunderground v.1.15,2013-06-27 14:37:00,
2013-06-27 09:42:00,80.8,74.8,29.74,North,9,2.0,2.0,82,0.00,,,0.00,Wunderground v.1.15,2013-06-27 14:42:00,
2013-06-27 09:48:00,80.9,74.5,29.75,WNW,298,3.0,5.0,81,0.00,,,0.00,Wunderground v.1.15,2013-06-27 14:48:00,
2013-06-27 09:54:00,81.2,74.8,29.75,West,276,2.0,3.0,81,0.00,,,0.00,Wunderground v.1.15,2013-06-27 14:54:00,
2013-06-27 09:59:00,81.5,75.5,29.75,NNE,19,2.0,3.0,82,0.00,,,0.00,Wunderground v.1.15,2013-06-27 14:59:00,
2013-06-27 10:05:00,81.7,75.3,29.75,WSW,257,2.0,6.0,81,0.00,,,0.00,Wunderground v.1.15,2013-06-27 15:05:00,
2013-06-27 10:11:00,81.8,75.0,29.75,NW,307,2.0,3.0,80,0.00,,,0.00,Wunderground v.1.15,2013-06-27 15:11:00,
2013-06-27 10:16:00,81.9,74.7,29.75,NW,304,2.0,4.0,79,0.00,,,0.00,Wunderground v.1.15,2013-06-27 15:16:00,
2013-06-27 10:22:00,82.3,75.5,29.75,WNW,301,2.0,5.0,80,0.00,,,0.00,Wunderground v.1.15,2013-06-27 15:22:00,
2013-06-27 10:27:00,82.5,75.7,29.74,NNW,346,2.0,5.0,80,0.00,,,0.00,Wunderground v.1.15,2013-06-27 15:27:00,
2013-06-27 10:33:00,82.8,75.2,29.75,WSW,241,3.0,5.0,78,0.00,,,0.00,Wunderground v.1.15,2013-06-27 15:33:00,
2013-06-27 10:39:00,83.2,74.8,29.75,WNW,286,3.0,5.0,76,0.00,,,0.00,Wunderground v.1.15,2013-06-27 15:39:00,
2013-06-27 10:44:00,83.4,75.4,29.75,West,259,3.0,4.0,77,0.00,,,0.00,Wunderground v.1.15,2013-06-27 15:44:00,
2013-06-27 10:50:00,83.4,74.6,29.75,North,5,3.0,3.0,75,0.00,,,0.00,Wunderground v.1.15,2013-06-27 15:50:00,
2013-06-27 10:56:00,83.7,74.9,29.74,North,9,3.0,8.0,75,0.00,,,0.00,Wunderground v.1.15,2013-06-27 15:56:00,
2013-06-27 11:02:00,83.7,74.5,29.74,North,350,3.0,6.0,74,0.00,,,0.00,Wunderground v.1.15,2013-06-27 16:02:00,
2013-06-27 11:07:00,84.2,75.0,29.74,WNW,294,4.0,6.0,74,0.00,,,0.00,Wunderground v.1.15,2013-06-27 16:07:00,
2013-06-27 11:13:00,84.4,74.4,29.75,NNW,340,3.0,4.0,72,0.00,,,0.00,Wunderground v.1.15,2013-06-27 16:13:00,
2013-06-27 11:19:00,84.6,75.4,29.74,WNW,283,3.0,4.0,74,0.00,,,0.00,Wunderground v.1.15,2013-06-27 16:19:00,
2013-06-27 11:25:00,84.6,75.4,29.74,NNE,28,3.0,7.0,74,0.00,,,0.00,Wunderground v.1.15,2013-06-27 16:25:00,
2013-06-27 11:31:00,84.7,75.1,29.74,WNW,284,4.0,4.0,73,0.00,,,0.00,Wunderground v.1.15,2013-06-27 16:31:00,
2013-06-27 11:36:00,84.7,75.1,29.74,NNE,24,4.0,7.0,73,0.00,,,0.00,Wunderground v.1.15,2013-06-27 16:36:00,
2013-06-27 11:42:00,84.6,75.0,29.75,West,281,3.0,5.0,73,0.00,,,0.00,Wunderground v.1.15,2013-06-27 16:42:00,
2013-06-27 11:47:00,84.7,75.1,29.75,NW,311,3.0,5.0,73,0.00,,,0.00,Wunderground v.1.15,2013-06-27 16:47:00,
2013-06-27 11:53:00,85.1,76.3,29.74,NNW,343,3.0,4.0,75,0.00,,,0.00,Wunderground v.1.15,2013-06-27 16:53:00,
2013-06-27 11:58:00,85.3,75.2,29.74,NNW,348,3.0,5.0,72,0.00,,,0.00,Wunderground v.1.15,2013-06-27 16:58:00,
2013-06-27 12:04:00,85.6,74.7,29.74,North,9,3.0,7.0,70,0.00,,,0.00,Wunderground v.1.15,2013-06-27 17:04:00,
2013-06-27 12:09:00,85.7,76.0,29.75,WSW,257,4.0,7.0,73,0.00,,,0.00,Wunderground v.1.15,2013-06-27 17:09:00,
2013-06-27 12:15:00,85.7,74.4,29.74,West,259,3.0,5.0,69,0.00,,,0.00,Wunderground v.1.15,2013-06-27 17:15:00,
2013-06-27 12:21:00,85.7,74.4,29.75,NNW,328,4.0,7.0,69,0.00,,,0.00,Wunderground v.1.15,2013-06-27 17:21:00,
2013-06-27 12:26:00,85.8,74.4,29.74,North,5,3.0,7.0,69,0.00,,,0.00,Wunderground v.1.15,2013-06-27 17:26:00,
2013-06-27 12:32:00,85.8,73.6,29.74,NNE,26,3.0,3.0,67,0.00,,,0.00,Wunderground v.1.15,2013-06-27 17:32:00,
2013-06-27 12:38:00,85.9,74.5,29.74,NNW,335,3.0,4.0,69,0.00,,,0.00,Wunderground v.1.15,2013-06-27 17:38:00,
2013-06-27 12:43:00,86.1,73.4,29.74,West,281,2.0,4.0,66,0.00,,,0.00,Wunderground v.1.15,2013-06-27 17:43:00,
2013-06-27 12:49:00,86.3,73.6,29.75,WSW,244,2.0,4.0,66,0.00,,,0.00,Wunderground v.1.15,2013-06-27 17:49:00,
2013-06-27 12:55:00,86.3,74.0,29.75,NNW,346,3.0,8.0,67,0.00,,,0.00,Wunderground v.1.15,2013-06-27 17:55:00,
2013-06-27 13:00:00,86.5,72.4,29.75,WSW,256,3.0,6.0,63,0.00,,,0.00,Wunderground v.1.15,2013-06-27 18:00:00,
2013-06-27 13:06:00,86.7,74.0,29.75,West,265,3.0,6.0,66,0.00,,,0.00,Wunderground v.1.15,2013-06-27 18:06:00,
2013-06-27 13:12:00,86.9,73.7,29.75,WSW,248,3.0,5.0,65,0.00,,,0.00,Wunderground v.1.15,2013-06-27 18:12:00,
2013-06-27 13:18:00,87.0,73.8,29.75,North,5,3.0,5.0,65,0.00,,,0.00,Wunderground v.1.15,2013-06-27 18:18:00,
2013-06-27 13:23:00,87.0,74.3,29.75,SSW,209,3.0,8.0,66,0.00,,,0.00,Wunderground v.1.15,2013-06-27 18:23:00,
2013-06-27 13:29:00,86.8,74.1,29.75,NNE,22,3.0,8.0,66,0.00,,,0.00,Wunderground v.1.15,2013-06-27 18:29:00,
2013-06-27 13:35:00,87.2,74.0,29.75,West,270,3.0,5.0,65,0.00,,,0.00,Wunderground v.1.15,2013-06-27 18:35:00,
2013-06-27 13:40:00,87.2,73.5,29.75,North,351,3.0,4.0,64,0.00,,,0.00,Wunderground v.1.15,2013-06-27 18:40:00,
2013-06-27 13:46:00,87.2,73.5,29.75,North,5,4.0,9.0,64,0.00,,,0.00,Wunderground v.1.15,2013-06-27 18:46:00,
2013-06-27 13:51:00,87.4,72.8,29.75,SSW,200,4.0,4.0,62,0.00,,,0.00,Wunderground v.1.15,2013-06-27 18:51:00,
2013-06-27 13:57:00,87.2,72.1,29.76,North,5,4.0,4.0,61,0.00,,,0.00,Wunderground v.1.15,2013-06-27 18:57:00,
2013-06-27 14:04:00,87.1,73.0,29.76,NNE,30,4.0,6.0,63,0.00,,,0.00,Wunderground v.1.15,2013-06-27 19:04:00,
2013-06-27 14:09:00,87.4,73.3,29.75,WSW,252,4.0,9.0,63,0.00,,,0.00,Wunderground v.1.15,2013-06-27 19:09:00,
2013-06-27 14:15:00,87.5,72.9,29.76,NNE,17,4.0,10.0,62,0.00,,,0.00,Wunderground v.1.15,2013-06-27 19:15:00,
2013-06-27 14:20:00,87.8,73.2,29.75,WNW,300,5.0,5.0,62,0.00,,,0.00,Wunderground v.1.15,2013-06-27 19:20:00,
2013-06-27 14:26:00,87.9,72.3,29.75,WSW,238,4.0,8.0,60,0.00,,,0.00,Wunderground v.1.15,2013-06-27 19:26:00,
2013-06-27 14:32:00,88.2,71.6,29.75,North,349,3.0,8.0,58,0.00,,,0.00,Wunderground v.1.15,2013-06-27 19:32:00,
2013-06-27 14:38:00,88.5,72.8,29.74,West,279,3.0,8.0,60,0.00,,,0.00,Wunderground v.1.15,2013-06-27 19:38:00,
2013-06-27 14:43:00,88.8,72.1,29.74,NE,38,3.0,3.0,58,0.00,,,0.00,Wunderground v.1.15,2013-06-27 19:43:00,
2013-06-27 14:49:00,88.9,70.6,29.74,SW,232,2.0,5.0,55,0.00,,,0.00,Wunderground v.1.15,2013-06-27 19:49:00,
2013-06-27 14:55:00,88.7,72.0,29.74,SW,235,3.0,6.0,58,0.00,,,0.00,Wunderground v.1.15,2013-06-27 19:55:00,
2013-06-27 15:01:00,88.4,71.7,29.74,NNE,22,2.0,2.0,58,0.00,,,0.00,Wunderground v.1.15,2013-06-27 20:01:00,
2013-06-27 15:06:00,88.0,72.9,29.74,WSW,257,3.0,5.0,61,0.00,,,0.00,Wunderground v.1.15,2013-06-27 20:06:00,
2013-06-27 15:12:00,88.1,73.0,29.74,NW,304,3.0,4.0,61,0.00,,,0.00,Wunderground v.1.15,2013-06-27 20:12:00,
2013-06-27 15:17:00,88.2,72.1,29.73,SW,233,3.0,5.0,59,0.00,,,0.00,Wunderground v.1.15,2013-06-27 20:17:00,
2013-06-27 15:23:00,88.5,72.8,29.73,SSW,211,3.0,3.0,60,0.00,,,0.00,Wunderground v.1.15,2013-06-27 20:23:00,
2013-06-27 15:29:00,88.6,70.9,29.73,SSW,213,4.0,8.0,56,0.00,,,0.00,Wunderground v.1.15,2013-06-27 20:29:00,
2013-06-27 15:34:00,88.2,70.0,29.73,West,264,5.0,7.0,55,0.00,,,0.00,Wunderground v.1.15,2013-06-27 20:34:00,
2013-06-27 15:40:00,88.4,70.7,29.73,WSW,248,4.0,4.0,56,0.00,,,0.00,Wunderground v.1.15,2013-06-27 20:40:00,
2013-06-27 15:46:00,88.4,71.7,29.73,West,261,3.0,7.0,58,0.00,,,0.00,Wunderground v.1.15,2013-06-27 20:46:00,
2013-06-27 15:52:00,88.5,71.3,29.72,WSW,255,4.0,5.0,57,0.00,,,0.00,Wunderground v.1.15,2013-06-27 20:52:00,
2013-06-27 15:58:00,88.1,70.9,29.72,WNW,292,5.0,7.0,57,0.00,,,0.00,Wunderground v.1.15,2013-06-27 20:58:00,
2013-06-27 16:03:00,88.2,71.0,29.72,WNW,296,5.0,9.0,57,0.00,,,0.00,Wunderground v.1.15,2013-06-27 21:03:00,
2013-06-27 16:08:00,88.3,70.6,29.72,West,261,5.0,9.0,56,0.00,,,0.00,Wunderground v.1.15,2013-06-27 21:08:00,
2013-06-27 16:14:00,88.4,70.7,29.72,West,274,5.0,9.0,56,0.00,,,0.00,Wunderground v.1.15,2013-06-27 21:14:00,
2013-06-27 16:20:00,88.5,71.8,29.71,WSW,243,5.0,5.0,58,0.00,,,0.00,Wunderground v.1.15,2013-06-27 21:20:00,
2013-06-27 16:25:00,88.5,70.3,29.71,SW,217,5.0,8.0,55,0.00,,,0.00,Wunderground v.1.15,2013-06-27 21:25:00,
2013-06-27 16:30:00,88.4,70.7,29.71,West,273,5.0,5.0,56,0.00,,,0.00,Wunderground v.1.15,2013-06-27 21:30:00,
2013-06-27 16:36:00,88.4,70.2,29.71,WSW,245,5.0,9.0,55,0.00,,,0.00,Wunderground v.1.15,2013-06-27 21:36:00,
2013-06-27 16:41:00,88.5,70.3,29.70,WSW,254,5.0,5.0,55,0.00,,,0.00,Wunderground v.1.15,2013-06-27 21:41:00,
2013-06-27 16:47:00,88.5,70.3,29.70,WSW,248,5.0,8.0,55,0.00,,,0.00,Wunderground v.1.15,2013-06-27 21:47:00,
2013-06-27 16:52:00,88.5,70.8,29.70,West,265,4.0,5.0,56,0.00,,,0.00,Wunderground v.1.15,2013-06-27 21:52:00,